Fort Knox, KY

1:02 PM EDT on August 18, 2017 (GMT -0400)
Godman Army Air Field

Weather History for KFTK - January, 2014

Change the Weather History Date:

Thursday, January 2, 2014

  Actual Average Record
Temperature  
Mean Temperature 27 °F -  
Max Temperature 39 °F 41 °F 69 °F (2006)
Min Temperature 15 °F 26 °F 10 °F (2001)
Degree Days  
Heating Degree Days 38    
Moisture  
Dew Point 22 °F    
Average Humidity 85    
Maximum Humidity 100    
Minimum Humidity 61    
Precipitation  
Precipitation 0.08 in - - ()
Sea Level Pressure  
Sea Level Pressure 30.03 in    
Wind  
Wind Speed 8 mph (WNW)    
Max Wind Speed 21 mph    
Max Gust Speed 31 mph    
Visibility 7 miles    
Events Rain , Snow    
Averages and records for this station are not official NWS values.
T = Trace of Precipitation, MM = Missing Value Source: NWS Daily Summary

Daily Weather History Graph

Daily Weather History Graph

Search for Another Location

Airport or City:

Trip Planner

Search our weather history database for the weather conditions in past years. The results will help you decide how hot, cold, wet, or windy it might be!

Date:

Astronomy

Jan. 02, 2014 Rise Set
Actual Time 7:59 AM EST 5:36 PM EST
Civil Twilight 7:30 AM EST 6:05 PM EST
Nautical Twilight 6:57 AM EST 6:38 PM EST
Astronomical Twilight 6:25 AM EST 7:10 PM EST
Moon 8:42 AM EST (1/2) 7:30 PM EST (1/2)
Length of Visible Light 10h 35m
Length of Day
9h 36m
New Moon, 2% of the Moon is Illuminated
Jan 2
New Moon
Jan 7
First Quarter
Jan 15
Full
Jan 24
Last Quarter
Jan 30
New

Hourly Weather History & Observations

Time (EST) Temp. Windchill Dew Point Humidity Pressure Visibility Wind Dir Wind Speed Gust Speed Precip Events Conditions
12:56 AM 39.2 °F - 26.6 °F 61% 29.97 in 10.0 mi WSW 1.2 mph - N/A   Partly Cloudy
12:58 AM 39.2 °F - 26.6 °F 61% 29.99 in 10.0 mi SW 2.3 mph - N/A   Partly Cloudy
1:06 AM 39.2 °F - 26.6 °F 61% 29.96 in 10.0 mi Calm Calm - N/A   Scattered Clouds
1:58 AM 38.3 °F - 27.5 °F 65% 29.97 in 10.0 mi Calm Calm - 0.00 in   Mostly Cloudy
2:41 AM 37.4 °F - 32.0 °F 81% 29.95 in 10.0 mi North 1.2 mph - N/A   Scattered Clouds
2:46 AM 37.4 °F - 30.2 °F 75% 29.95 in 10.0 mi NNW 2.3 mph - N/A   Mostly Cloudy
2:58 AM 37.9 °F - 29.7 °F 72% 29.97 in 10.0 mi Variable 1.2 mph - 0.00 in Rain Light Rain
3:22 AM 37.4 °F - 32.0 °F 81% 29.94 in 10.0 mi WSW 2.3 mph - N/A   Overcast
3:37 AM 37.4 °F - 32.0 °F 81% 29.92 in 10.0 mi Calm Calm - N/A   Mostly Cloudy
3:57 AM 37.4 °F - 32.0 °F 81% 29.91 in 10.0 mi ESE 2.3 mph - N/A   Overcast
3:58 AM 37.4 °F - 32.0 °F 81% 29.93 in 10.0 mi ESE 2.3 mph - 0.00 in   Overcast
4:22 AM 37.4 °F 33.8 °F 33.8 °F 87% 29.90 in 10.0 mi SSE 4.6 mph - N/A   Overcast
4:35 AM 37.4 °F 34.9 °F 33.8 °F 87% 29.89 in 10.0 mi SSE 3.5 mph - N/A   Overcast
4:43 AM 37.4 °F 33.8 °F 33.8 °F 87% 29.89 in 10.0 mi SSE 4.6 mph - N/A   Overcast
4:58 AM 36.5 °F 32.7 °F 33.6 °F 89% 29.90 in 10.0 mi SE 4.6 mph - 0.00 in   Overcast
5:01 AM 37.4 °F 32.8 °F 32.0 °F 81% 29.88 in 10.0 mi SE 5.8 mph - N/A   Overcast
5:06 AM 37.4 °F 32.8 °F 32.0 °F 81% 29.87 in 10.0 mi SE 5.8 mph - N/A   Overcast
5:11 AM 37.4 °F 33.8 °F 33.8 °F 87% 29.87 in 10.0 mi SE 4.6 mph - N/A   Overcast
5:30 AM 35.6 °F 32.8 °F 33.8 °F 93% 29.86 in 10.0 mi East 3.5 mph - N/A   Overcast
5:43 AM 35.6 °F - 33.8 °F 93% 29.86 in 10.0 mi East 2.3 mph - N/A   Overcast
5:58 AM 36.1 °F - 34.0 °F 92% 29.88 in 10.0 mi East 1.2 mph - 0.00 in   Overcast
5:59 AM 35.6 °F - 33.8 °F 93% 29.85 in 10.0 mi East 1.2 mph - N/A   Overcast
6:04 AM 35.6 °F - 33.8 °F 93% 29.85 in 7.0 mi ENE 1.2 mph - N/A   Overcast
6:09 AM 35.6 °F - 33.8 °F 93% 29.85 in 5.0 mi Calm Calm - N/A   Overcast
6:39 AM 35.6 °F - 35.6 °F 100% 29.84 in 5.0 mi Calm Calm - N/A   Overcast
6:40 AM 35.6 °F - 35.6 °F 100% 29.84 in 5.0 mi Calm Calm - N/A   Overcast
6:43 AM 35.6 °F - 35.6 °F 100% 29.83 in 5.0 mi Calm Calm - N/A   Overcast
6:52 AM 35.6 °F - 35.6 °F 100% 29.83 in 6.0 mi ENE 2.3 mph - N/A   Overcast
6:58 AM 35.8 °F - 35.1 °F 97% 29.85 in 6.0 mi East 2.3 mph - 0.00 in   Overcast
7:24 AM 35.6 °F - 35.6 °F 100% 29.82 in 6.0 mi East 2.3 mph - N/A Rain Light Rain
7:58 AM 36.0 °F - 35.4 °F 98% 29.85 in 5.0 mi WNW 1.2 mph - 0.01 in Rain Light Rain
8:23 AM 35.6 °F - 35.6 °F 100% 29.82 in 1.5 mi WSW 2.3 mph - N/A Rain Light Rain
8:58 AM 36.1 °F 30.6 °F 36.0 °F 99% 29.87 in 1.0 mi West 6.9 mph - 0.02 in Rain Light Rain
9:28 AM 35.6 °F 27.5 °F 35.6 °F 100% 29.85 in 3.0 mi West 11.5 mph - N/A Rain Light Rain
9:49 AM 35.6 °F 26.6 °F 35.6 °F 100% 29.85 in 3.0 mi West 13.8 mph - N/A Rain Light Rain
9:52 AM 35.6 °F 25.5 °F 35.6 °F 100% 29.85 in 3.0 mi West 17.3 mph 23.0 mph N/A Rain Light Rain
9:58 AM 35.6 °F 26.6 °F 35.2 °F 99% 29.89 in 4.0 mi West 13.8 mph 23.0 mph 0.03 in Rain Light Rain
10:12 AM 33.8 °F 22.8 °F 33.8 °F 100% 29.86 in 1.0 mi West 18.4 mph 23.0 mph N/A Snow Light Snow
10:58 AM 31.1 °F 19.3 °F 30.2 °F 96% 29.92 in 1.2 mi West 18.4 mph 26.5 mph 0.01 in Snow Light Snow
11:19 AM 28.4 °F 16.6 °F 26.6 °F 93% 29.90 in 2.0 mi West 16.1 mph 26.5 mph N/A Snow Light Snow
11:22 AM 28.4 °F 15.4 °F 26.6 °F 93% 29.90 in 3.0 mi West 19.6 mph 29.9 mph N/A Snow Light Snow
11:35 AM 26.6 °F 13.4 °F 26.6 °F 100% 29.91 in 5.0 mi West 18.4 mph 26.5 mph N/A Snow Light Snow
11:48 AM 26.6 °F 13.8 °F 24.8 °F 93% 29.91 in 7.0 mi West 17.3 mph 31.1 mph N/A   Overcast
11:58 AM 26.6 °F 13.1 °F 24.4 °F 92% 29.95 in 7.0 mi WNW 19.6 mph 31.1 mph 0.01 in   Overcast
12:13 PM 24.8 °F 10.7 °F 23.0 °F 93% 29.92 in 7.0 mi West 19.6 mph - N/A   Overcast
12:30 PM 24.8 °F 12.4 °F 21.2 °F 86% 29.92 in 8.0 mi West 15.0 mph 26.5 mph N/A   Overcast
12:47 PM 23.0 °F 9.2 °F 21.2 °F 93% 29.93 in 9.0 mi West 17.3 mph 24.2 mph N/A   Overcast
12:58 PM 23.0 °F 9.6 °F 20.1 °F 89% 29.97 in 9.0 mi West 16.1 mph 24.2 mph N/A   Overcast
12:59 PM 23.0 °F 9.6 °F 19.4 °F 86% 29.94 in 9.0 mi West 16.1 mph 24.2 mph N/A Snow Light Snow
1:04 PM 23.0 °F 10.1 °F 19.4 °F 86% 29.94 in 9.0 mi West 15.0 mph 24.2 mph N/A Snow Light Snow
1:20 PM 21.2 °F 6.0 °F 19.4 °F 93% 29.94 in 10.0 mi West 19.6 mph 25.3 mph N/A   Overcast
1:58 PM 22.3 °F 8.2 °F 18.5 °F 85% 29.99 in 10.0 mi West 17.3 mph 23.0 mph 0.00 in   Overcast
2:41 PM 21.2 °F 8.3 °F 17.6 °F 86% 29.97 in 10.0 mi West 13.8 mph 25.3 mph N/A Snow Light Snow
2:58 PM 21.4 °F 5.8 °F 16.9 °F 83% 30.01 in 10.0 mi WNW 20.7 mph 27.6 mph 0.00 in Snow Light Snow
3:10 PM 21.2 °F 6.0 °F 15.8 °F 80% 29.99 in 7.0 mi West 19.6 mph 28.8 mph N/A Snow Light Snow
3:45 PM 21.2 °F 6.4 °F 15.8 °F 80% 30.02 in 5.0 mi West 18.4 mph 20.7 mph N/A Snow Light Snow
3:58 PM 20.7 °F 7.6 °F 15.8 °F 81% 30.05 in 3.0 mi WNW 13.8 mph 25.3 mph 0.00 in Snow Light Snow
4:13 PM 21.2 °F 7.3 °F 15.8 °F 80% 30.03 in 3.0 mi West 16.1 mph 24.2 mph N/A Snow Light Snow
4:18 PM 21.2 °F 9.5 °F 15.8 °F 80% 30.03 in 3.0 mi WNW 11.5 mph 24.2 mph N/A Snow Light Snow
4:28 PM 21.2 °F 8.3 °F 15.8 °F 80% 30.04 in 2.5 mi WNW 13.8 mph 19.6 mph N/A Snow Light Snow
4:33 PM 21.2 °F 7.8 °F 15.8 °F 80% 30.04 in 3.0 mi WNW 15.0 mph 20.7 mph N/A Snow Light Snow
4:48 PM 19.4 °F 6.0 °F 15.8 °F 86% 30.06 in 2.5 mi WNW 13.8 mph - N/A Snow Light Snow
4:53 PM 19.4 °F 4.5 °F 15.8 °F 86% 30.06 in 3.0 mi West 17.3 mph - N/A Snow Light Snow
4:58 PM 20.1 °F 5.4 °F 15.8 °F 83% 30.09 in 4.0 mi WNW 17.3 mph 27.6 mph 0.00 in Snow Light Snow
5:13 PM 19.4 °F 5.5 °F 15.8 °F 86% 30.07 in 2.5 mi West 15.0 mph 20.7 mph N/A Snow Light Snow
5:23 PM 19.4 °F 7.2 °F 15.8 °F 86% 30.08 in 3.0 mi WNW 11.5 mph - N/A Snow Light Snow
5:58 PM 19.8 °F 5.4 °F 15.6 °F 84% 30.14 in 4.0 mi WNW 16.1 mph 20.7 mph 0.00 in Snow Light Snow
6:18 PM 19.4 °F 5.0 °F 14.0 °F 80% 30.13 in 2.5 mi NW 16.1 mph 20.7 mph N/A Snow Light Snow
6:23 PM 19.4 °F 4.5 °F 14.0 °F 80% 30.13 in 1.5 mi NNW 17.3 mph 19.6 mph N/A Snow Light Snow
6:28 PM 19.4 °F 3.6 °F 14.0 °F 80% 30.14 in 1.2 mi NW 19.6 mph 25.3 mph N/A Snow Light Snow
6:33 PM 17.6 °F 2.7 °F 14.0 °F 86% 30.14 in 1.8 mi NW 16.1 mph 25.3 mph N/A Snow Light Snow
6:38 PM 17.6 °F 4.3 °F 14.0 °F 86% 30.15 in 3.0 mi NW 12.7 mph 21.9 mph N/A Snow Light Snow
6:43 PM 17.6 °F 3.7 °F 14.0 °F 86% 30.15 in 8.0 mi NW 13.8 mph 18.4 mph N/A Snow Light Snow
6:53 PM 17.6 °F 3.2 °F 12.2 °F 79% 30.16 in 10.0 mi NW 15.0 mph - N/A Snow Light Snow
6:57 PM 17.6 °F 3.7 °F 12.2 °F 79% 30.16 in 10.0 mi NW 13.8 mph 21.9 mph N/A   Overcast
6:58 PM 18.1 °F 4.4 °F 12.7 °F 79% 30.20 in 10.0 mi NW 13.8 mph 21.9 mph 0.00 in   Overcast
7:03 PM 17.6 °F 5.0 °F 12.2 °F 79% 30.17 in 10.0 mi NW 11.5 mph 21.9 mph N/A   Overcast
7:04 PM 17.6 °F 4.3 °F 12.2 °F 79% 30.17 in 10.0 mi NW 12.7 mph 21.9 mph N/A Snow Light Snow
7:09 PM 17.6 °F 6.4 °F 12.2 °F 79% 30.17 in 9.0 mi NW 9.2 mph - N/A Snow Light Snow
7:14 PM 17.6 °F 5.0 °F 12.2 °F 79% 30.17 in 8.0 mi NW 11.5 mph 18.4 mph N/A Snow Light Snow
7:20 PM 17.6 °F 4.3 °F 12.2 °F 79% 30.18 in 7.0 mi NW 12.7 mph 18.4 mph N/A Snow Light Snow
7:58 PM 18.1 °F 5.6 °F 12.9 °F 80% 30.24 in 9.0 mi NW 11.5 mph - 0.00 in Snow Light Snow
8:21 PM 17.6 °F 2.7 °F 12.2 °F 79% 30.22 in 10.0 mi NW 16.1 mph 23.0 mph N/A   Overcast
8:58 PM 16.9 °F 2.3 °F 9.7 °F 73% 30.28 in 10.0 mi NW 15.0 mph 26.5 mph 0.00 in   Overcast
9:13 PM 15.8 °F 2.7 °F 10.4 °F 79% 30.24 in 10.0 mi NW 11.5 mph - N/A   Overcast
9:18 PM 15.8 °F 3.4 °F 10.4 °F 79% 30.24 in 10.0 mi NW 10.4 mph - N/A   Overcast
9:31 PM 15.8 °F 2.1 °F 10.4 °F 79% 30.25 in 10.0 mi NW 12.7 mph 23.0 mph N/A Snow Light Snow
9:36 PM 15.8 °F 1.4 °F 10.4 °F 79% 30.25 in 10.0 mi NW 13.8 mph 23.0 mph N/A Snow Light Snow
9:49 PM 15.8 °F -0.6 °F 10.4 °F 79% 30.26 in 10.0 mi NW 18.4 mph - N/A   Overcast
9:53 PM 15.8 °F 1.4 °F 8.6 °F 73% 30.26 in 10.0 mi NW 13.8 mph 20.7 mph N/A Snow Light Snow
9:58 PM 15.8 °F 2.7 °F 9.5 °F 76% 30.30 in 10.0 mi NW 11.5 mph 23.0 mph 0.00 in Snow Light Snow
10:03 PM 15.8 °F 1.4 °F 10.4 °F 79% 30.26 in 10.0 mi NW 13.8 mph 23.0 mph N/A Snow Light Snow
10:08 PM 15.8 °F 3.4 °F 10.4 °F 79% 30.27 in 10.0 mi NW 10.4 mph - N/A Snow Light Snow
10:28 PM 15.8 °F 5.1 °F 10.4 °F 79% 30.27 in 9.0 mi NW 8.1 mph - N/A Snow Light Snow
10:50 PM 15.8 °F 1.4 °F 10.4 °F 79% 30.29 in 10.0 mi WNW 13.8 mph 21.9 mph N/A   Overcast
10:58 PM 15.6 °F 3.2 °F 9.7 °F 77% 30.33 in 10.0 mi NW 10.4 mph 21.9 mph 0.00 in   Overcast
11:08 PM 15.8 °F 1.4 °F 8.6 °F 73% 30.29 in 10.0 mi WNW 13.8 mph - N/A   Overcast
11:15 PM 15.8 °F 3.4 °F 8.6 °F 73% 30.29 in 10.0 mi NW 10.4 mph - N/A Snow Light Snow
11:47 PM 15.8 °F 3.4 °F 8.6 °F 73% 30.31 in 10.0 mi NW 10.4 mph 17.3 mph N/A   Overcast
11:58 PM 15.1 °F 1.1 °F 8.4 °F 75% 30.37 in 10.0 mi NW 12.7 mph - 0.00 in   Overcast